Weather Roundup
Issued by NWS Corpus Christi, TX

Home | Current Version | Previous Version | Text Only | Print | Product List | Glossary On
Versions: 1 2 3 4 5 6 7 8 9 10 11 12 13 14 15 16 17 18 19 20 21 22 23 24 25 26 27 28 29 30 31 32 33 34 35 36 37 38 39 40 41 42 43 44 45 46 47 48 49 50
000
ASUS44 KCRP 280310
HRRCRP

SOUTH TEXAS REGIONAL WEATHER ROUNDUP
NATIONAL WEATHER SERVICE CORPUS CHRISTI TX
1000 PM CDT THU APR 27 2017


TXZ229>244-280400-
...CORPUS CHRISTI AREA OBSERVATIONS...

CITY           SKY/WX    TMP DP  RH WIND       PRES   REMARKS
CORPUS CHRISTI CLOUDY    75  70  84 SE13      29.65S
NAS CORPUS CHR CLOUDY    77  73  87 SE12      29.66S
ROCKPORT       CLOUDY    76  69  79 SE12      29.66S
KINGSVILLE NAS CLOUDY    76  72  87 SE8       29.65R
ALICE          CLOUDY    75  68  78 SE10      29.64S
ORANGE GROVE   CLOUDY    75  69  81 SE12      29.65F
FALFURRIAS     CLOUDY    77  70  78 E7        29.64R
$$

...VICTORIA AREA OBSERVATIONS...

CITY           SKY/WX    TMP DP  RH WIND       PRES   REMARKS
VICTORIA       CLOUDY    73  67  81 SE16      29.66F
BEEVILLE       CLOUDY    73  69  87 SE13      29.65F
PLEASANTON     HVY RAIN  73  64  73 SE13G18   29.63R
SAN ANTONIO    MOCLDY    76  62  62 SE17G23   29.63R
$$

...LAREDO AREA OBSERVATIONS...

CITY           SKY/WX    TMP DP  RH WIND       PRES   REMARKS
LAREDO         CLEAR     82  69  64 E15       29.59R
COTULLA        CLEAR     81  65  58 SE20G25   29.59R
DEL RIO        CLOUDY    81  60  48 SE14      29.54R
MCALLEN        CLOUDY    82  71  69 SE17      29.63R
HEBBRONVILLE   CLEAR     73  67  82 SE10      29.64S
$$

...OTHER TEXAS OBSERVATIONS...

CITY           SKY/WX    TMP DP  RH WIND       PRES   REMARKS
BROWNSVILLE    CLOUDY    80  71  74 SE12      29.65R
HOUSTON        MOCLDY    70  62  76 SE10      29.69R
COL. STATION   CLOUDY    72  59  63 S12       29.64R
AUSTIN         CLOUDY    72  61  68 S9        29.61S
WACO           CLOUDY    69  55  60 SE8       29.62R
FORT WORTH     MOCLDY    70  53  54 SE16      29.56S
WICHITA FALLS  CLEAR     65  48  54 E15       29.49S
LUBBOCK        CLOUDY    79  30  16 SW15      29.45R
EL PASO        MOCLDY    82  21  10 W22G32    29.60R
$$

...MARINE OBSERVATIONS...

STATION/POSITION TIME  SKY/WX   TEMP    WIND        PRES    VSBY  WAVE   SWELL
                                AIR SEA DIR/SP/G                  HT/PER HT/PER
                 (UTC)          (F)     (DEG/KT/KT) (MB)    (MI)  (FT/S) (FT/S)
PORT ARANSAS     0300            75 77  110/ 12/ 13 1004.4S
BUOY 90 E PORT A 0250            76 76   90/ 14/ 16 1004.7R         4/ 5
BUOY 45 SE BAFFI 0250            76     120/ 12/ 12 1003.3R         5/ 7   5/ 7
BUOY 200 E PT IS 0250            79 79  140/ 16/ 19 1005.1R         5/ 7
BUOY 15 E GALVES 0250            74 75  130/ 16/ 17 1005.7F         3/ 4   2/ 8
$$



USA.gov is the U.S. government's official web portal to all federal, state and local government web resources and services.